sat.trackr.live / text

‹ back to catalog

STARLINK-30166

NORAD 57602 · 2023-119A

PAYLOAD ACTIVE UNKNOWN

§ Identity

Operator
Country
US
Launch date
2023-08-11
Launch site
AFETR
Launch vehicle
Mass (kg)
RCS (m²)

Purposes: comms

External: N2YO · Heavens-Above · Gunter

§ Orbital elements

Epoch: 2026-09-19T18:54:54.643680Z

Period
94.27 min
Inclination
43.0042°
Eccentricity
0.0001734
Mean motion
15.27576584 rev/d
Perigee alt
481.9 km
Apogee alt
484.2 km
Semi-major
6,861.2 km
B*
1.3099e-5
RAAN
65.2081°
Arg perigee
274.4471°
Mean anomaly
85.6182°
Rev number
17,271

§ Raw data

STARLINK-301661 57602U 23119A   26262.78813245  .00000098  00000+0  13099-4 0  99942 57602  43.0042  65.2081 0001734 274.4471  85.6182 15.27576584172719

JSON: /api/v1/satellites/57602 · /tle

For live sub-satellite position, see the globe view (requires WebGL).

§ Visibility from observer

Set your observer location to see the next 7 days of passes ≥ 10°. The values pass through the URL so the page stays shareable.

No JS? Fill the form by hand. The geolocation button needs JavaScript.